Location: Dattensoll
(49.9928°N, 9.8954°E)
Time: 20:51:23
(UTC+00:00)

SL-24 R/B - Pass Details

Date: 19 May 2025
Orbit: 623 x 1072 km, 98.1° (Epoch: 15 June)

Event Time Altitude Azimuth Distance (km) Brightness Sun altitude
Rises 21:03:16 0° 16° (NNE) 2,921 8.2 -14.0°
Reaches altitude 10° 21:05:27 10° 19° (NNE) 2,009 7.2 -14.2°
Maximum altitude 21:09:45 68° 102° (ESE) 691 4.1 -14.6°
Enters shadow 21:12:51 19° 183° (S) 1,537 5.6 -14.8°
